This demonstration page uses our WeatherBlox Daily Observations layout. Learn more.

Left ArrowRight Arrow

Hourly Observations for March 22, 2021

Temp ( °F °C ) Dew Point ( °F °C ) Humidity (%) Winds ( mph kmh ) Pressure ( in mb ) Visibility ( mi km ) Precip ( " mm )
12:54 am 00:54 Mostly Clear 43 6.1 35 1.7 74 74 N 7 11 30.01 1016 10 16 N/A
1:54 am 01:54 Cloudy 49 9.4 36 2.2 61 61 N N/A 30.01 1016 10 16 N/A
3:54 am 03:54 Clear 47 8.3 35 1.7 63 63 NW 5 7 29.99 1016 10 16 N/A
4:54 am 04:54 Cloudy 46 7.8 36 2.2 68 68 N 7 11 30.01 1016 10 16 N/A
5:54 am 05:54 Partly Cloudy 45 7.2 36 2.2 71 71 N 9 15 30.00 1016 10 16 N/A
6:54 am 06:54 Cloudy 45 7.2 36 2.2 71 71 NNE 8 13 29.98 1015 10 16 N/A
7:54 am 07:54 Cloudy 45 7.2 36 2.2 71 71 NNE 9 15 30.00 1016 10 16 N/A
8:54 am 08:54 Cloudy 46 7.8 37 2.8 71 71 ENE 15 24 29.99 1016 10 16 0.00 0.00
9:54 am 09:54 Cloudy 47 8.3 37 2.8 69 69 NE 13 20 29.98 1015 10 16 0.00 0.00
10:54 am 10:54 Cloudy with Light Rain 47 8.3 39 3.9 74 74 NE 12 19 29.98 1015 10 16 0.00 0.00
11:54 am 11:54 Cloudy with Light Rain 46 7.8 39 3.9 77 77 NNE 17 28 29.96 1014 10 16 0.01 0.25
12:54 pm 12:54 Cloudy with Light Rain 45 7.2 40 4.4 83 83 ENE 14 22 29.94 1014 7 11 0.01 0.25
1:04 pm 13:04 Cloudy with Light Rain 45 7.2 40 4.4 83 83 ENE 14 22 29.94 1014 8 13 0.00 0.00
1:29 pm 13:29 Cloudy with Light Rain 45 7.2 41 5 86 86 ENE 16 26 29.92 1013 5 8 0.00 0.00
1:38 pm 13:38 Cloudy 45 7.2 41 5 86 86 ENE 17 28 29.92 1013 9 14 0.00 0.00
1:54 pm 13:54 Cloudy 45 7.2 41 5 86 86 ENE 15 24 29.90 1013 10 16 0.00 0.00
2:10 pm 14:10 Cloudy with Light Rain 45 7.2 41 5 86 86 ENE 13 20 29.92 1013 9 14 0.00 0.00
2:45 pm 14:45 Cloudy with Light Rain 45 7.2 41 5 86 86 E 10 17 29.91 1013 4 6 0.03 0.76
2:54 pm 14:54 Cloudy with Rain 45 7.2 42 5.6 90 90 ENE 13 20 29.88 1012 3 5 0.05 1.27
3:09 pm 15:09 Cloudy with Rain 45 7.2 41 5 86 86 NE 13 20 29.87 1012 3 4 0.02 0.51
3:19 pm 15:19 Cloudy with Rain 45 7.2 41 5 86 86 NE 18 30 29.85 1011 3 5 0.07 1.78
3:54 pm 15:54 Cloudy with Light Rain 45 7.2 42 5.6 90 90 ENE 18 30 29.85 1011 5 8 0.11 2.79
4:32 pm 16:32 Cloudy with Light Rain 45 7.2 42 5.6 90 90 ENE 17 28 29.84 1011 3 4 0.00 0.00
4:54 pm 16:54 Cloudy with Light Rain 45 7.2 42 5.6 90 90 ENE 15 24 29.83 1010 2 2 0.01 0.25
5:54 pm 17:54 Cloudy with Light Rain 45 7.2 42 5.6 90 90 NE 13 20 29.81 1009 2 3 0.13 3.30
6:54 pm 18:54 Cloudy with Light Rain 46 7.8 43 6.1 89 89 ENE 15 24 29.79 1009 3 4 0.05 1.27
7:18 pm 19:18 Cloudy with Rain 46 7.8 43 6.1 89 89 ENE 13 20 29.80 1009 3 5 0.03 0.76
7:54 pm 19:54 Cloudy with Rain 46 7.8 43 6.1 89 89 ENE 14 22 29.79 1009 3 5 0.07 1.78
8:27 pm 20:27 Cloudy with Rain 46 7.8 43 6.1 89 89 ENE 9 15 29.81 1010 3 4 0.07 1.78
8:34 pm 20:34 Cloudy with Rain 46 7.8 44 6.7 93 93 ENE 12 19 29.81 1010 3 5 0.08 2.03
8:54 pm 20:54 Cloudy with Light Rain 46 7.8 43 6.1 89 89 ENE 12 19 29.80 1009 4 6 0.11 2.79
9:54 pm 21:54 Cloudy with Light Rain 47 8.3 44 6.7 90 90 NE 7 11 29.79 1009 6 10 0.05 1.27
10:54 pm 22:54 Cloudy with Light Rain 47 8.3 44 6.7 90 90 ENE 12 19 29.77 1008 4 6 0.02 0.51
11:54 pm 23:54 Cloudy with Light Rain 47 8.3 45 7.2 93 93 ENE 9 15 29.75 1007 5 8 0.01 0.25

Powered by AerisWeather